This is the latest recevied weather packets stored in our database for station/object DC4THF-13. If no packets are shown the sender has not sent any weather packets the latest 10 day(s).
| Time | Temp. | Humidity | Pressure | Rain* | Wind** | Luminosity | Snow |
|---|---|---|---|---|---|---|---|
| 1787563935 | 18.89° C | 62% | 1017.3 hPa | 0 mm | - | - | - |
| 1787563392 | 18.89° C | 62% | 1017.2 hPa | 0 mm | - | - | - |
| 1787562788 | 18.33° C | 63% | 1017.2 hPa | 0 mm | - | - | - |
| 1787562184 | 18.89° C | 63% | 1017.4 hPa | 0 mm | - | - | - |
| 1787561581 | 17.78° C | 65% | 1017.3 hPa | 0 mm | - | - | - |
| 1787560977 | 17.22° C | 70% | 1017.5 hPa | 0 mm | - | - | - |
| 1787560373 | 17.22° C | 70% | 1017.5 hPa | 0 mm | - | - | - |
| 1787559769 | 17.22° C | 70% | 1017.6 hPa | 0 mm | - | - | - |
| 1787559167 | 17.78° C | 65% | 1017.4 hPa | 0 mm | - | - | - |
| 1787558562 | 17.78° C | 69% | 1017.6 hPa | 0 mm | - | - | - |
| 1787557958 | 17.22° C | 70% | 1017.6 hPa | 0 mm | - | - | - |
| 1787557354 | 17.22° C | 71% | 1017.6 hPa | 0 mm | - | - | - |
| 1787556751 | 16.11° C | 70% | 1017.6 hPa | 0 mm | - | - | - |
| 1787556147 | 17.22° C | 73% | 1017.7 hPa | 0 mm | - | - | - |
| 1787555544 | 16.11° C | 79% | 1017.6 hPa | 0 mm | - | - | - |
| 1787554941 | 13.89° C | 80% | 1017.6 hPa | 0 mm | - | - | - |
| 1787554338 | 13.89° C | 79% | 1017.7 hPa | 0 mm | - | - | - |
| 1787553735 | 13.89° C | 78% | 1017.8 hPa | 0 mm | - | - | - |
| 1787553132 | 14.44° C | 77% | 1017.7 hPa | 0 mm | - | - | - |
| 1787552590 | 14.44° C | 79% | 1017.7 hPa | 0 mm | - | - | - |
| 1787551987 | 13.33° C | 80% | 1017.7 hPa | 0 mm | - | - | - |
| 1787551384 | 13.33° C | 81% | 1017.8 hPa | 0 mm | - | - | - |
| 1787550781 | 13.89° C | 84% | 1017.7 hPa | 0 mm | - | - | - |
| 1787550178 | 13.33° C | 89% | 1017.6 hPa | 0 mm | - | - | - |
| 1787549575 | 12.22° C | 93% | 1017.6 hPa | 0 mm | - | - | - |
* Rain latest hour (hover to see other rain measurements)
** Current wind speed in m/s (hover to see current wind gust speed)